Вернуться в каталог

FENGYUN 1C DEB

АктивенLEO
NORAD 32356·DEBRIS·🇨🇳 China

Запущен May 10, 1999 с Taiyuan Satellite Launch Center

Loading…

Ближайшие Пролёты (ближайшие 24 часа)

TLE

СвежийSource: Space-Track

Эпоха: Sep 12, 2026, 20:35 UTC

1 32356U 99025CYZ 26255.85764831  .00002501  00000-0  14898-2 0  9996
2 32356 102.4941 224.8612 0123582  69.1797 292.2543 14.05103440722355

Отслеживайте FENGYUN 1C DEB в реальном времени с AllMySat

Download on the App Store